McAlester, OK

9:11 AM CDT on April 26, 2017 (GMT -0500)
McAlester Regional

Weather History for KMLC - May, 2013

Change the Weather History Date:

Thursday, May 16, 2013

  Actual Average Record
Temperature  
Mean Temperature 66 °F -  
Max Temperature 73 °F 81 °F 88 °F (1960)
Min Temperature 60 °F 58 °F 41 °F (1983)
Cooling Degree Days 1    
Growing Degree Days 16 (Base 50)    
Moisture  
Dew Point 61 °F    
Average Humidity 85    
Maximum Humidity 94    
Minimum Humidity 68    
Precipitation  
Precipitation 0.07 in - - ()
Sea Level Pressure  
Sea Level Pressure 29.83 in    
Wind  
Wind Speed 4 mph (SSE)    
Max Wind Speed 10 mph    
Max Gust Speed -    
Visibility 10 miles    
Events Rain    
Averages and records for this station are not official NWS values.
T = Trace of Precipitation, MM = Missing Value Source: NWS Daily Summary

Daily Weather History Graph

Daily Weather History Graph

Search for Another Location

Airport or City:

Trip Planner

Search our weather history database for the weather conditions in past years. The results will help you decide how hot, cold, wet, or windy it might be!

Date:

Astronomy

May. 16, 2013 Rise Set
Actual Time 6:18 AM CDT 8:20 PM CDT
Civil Twilight 5:50 AM CDT 8:48 PM CDT
Nautical Twilight 5:16 AM CDT 9:23 PM CDT
Astronomical Twilight 4:39 AM CDT 9:59 PM CDT
Moon 11:48 AM CDT (5/16) 12:45 AM CDT (5/16)
Length of Visible Light 14h 57m
Length of Day
14h 01m
Waxing Crescent, 36% of the Moon is Illuminated
May 16
Waxing Crescent
May 17
First Quarter
May 24
Full
May 31
Last Quarter
Jun 8
New

Hourly Weather History & Observations

Time (CDT) Temp. Dew Point Humidity Pressure Visibility Wind Dir Wind Speed Gust Speed Precip Events Conditions
12:24 AM 62.6 °F 60.8 °F 94% 29.82 in 10.0 mi South 3.5 mph - 0.05 in Rain Light Rain
12:44 AM 62.6 °F 60.8 °F 94% 29.82 in 10.0 mi SSW 10.4 mph - 0.05 in Rain Light Rain
12:53 AM 62.1 °F 60.1 °F 93% 29.80 in 10.0 mi SSW 8.1 mph - 0.05 in Rain Light Rain
1:30 AM 62.6 °F 59.0 °F 88% 29.83 in 10.0 mi South 5.8 mph - 0.00 in   Scattered Clouds
1:53 AM 62.1 °F 59.0 °F 90% 29.81 in 10.0 mi SSE 5.8 mph - 0.00 in   Partly Cloudy
2:53 AM 61.0 °F 59.0 °F 93% 29.79 in 10.0 mi Calm Calm - N/A   Mostly Cloudy
3:13 AM 60.8 °F 59.0 °F 94% 29.80 in 10.0 mi East 3.5 mph - N/A   Mostly Cloudy
3:22 AM 60.8 °F 59.0 °F 94% 29.79 in 10.0 mi East 5.8 mph - N/A   Mostly Cloudy
3:53 AM 61.0 °F 59.0 °F 93% 29.78 in 10.0 mi East 3.5 mph - N/A   Partly Cloudy
4:53 AM 60.1 °F 57.9 °F 93% 29.80 in 10.0 mi Calm Calm - N/A   Partly Cloudy
5:11 AM 60.8 °F 59.0 °F 94% 29.83 in 10.0 mi Calm Calm - N/A   Mostly Cloudy
5:30 AM 60.8 °F 59.0 °F 94% 29.82 in 10.0 mi Calm Calm - N/A   Overcast
5:53 AM 62.1 °F 59.0 °F 90% 29.81 in 10.0 mi Calm Calm - N/A   Overcast
6:53 AM 62.1 °F 60.1 °F 93% 29.82 in 10.0 mi Calm Calm - N/A   Overcast
7:53 AM 64.0 °F 61.0 °F 90% 29.84 in 10.0 mi Calm Calm - N/A   Overcast
8:36 AM 64.4 °F 62.6 °F 94% 29.86 in 8.0 mi Calm Calm - 0.00 in Rain Light Rain
8:53 AM 64.9 °F 62.1 °F 90% 29.86 in 4.0 mi Calm Calm - 0.02 in Rain Light Rain
9:04 AM 64.4 °F 62.6 °F 94% 29.88 in 8.0 mi Calm Calm - 0.00 in Rain Light Rain
9:32 AM 64.4 °F 62.6 °F 94% 29.88 in 10.0 mi SE 4.6 mph - 0.00 in   Overcast
9:39 AM 64.4 °F 62.6 °F 94% 29.88 in 9.0 mi SE 3.5 mph - 0.00 in   Overcast
9:53 AM 64.9 °F 63.0 °F 93% 29.86 in 8.0 mi SE 3.5 mph - 0.00 in Rain Light Rain
10:12 AM 66.2 °F 62.6 °F 88% 29.88 in 10.0 mi SSE 4.6 mph - 0.00 in   Overcast
10:20 AM 66.2 °F 62.6 °F 88% 29.87 in 10.0 mi SSE 6.9 mph - 0.00 in   Overcast
10:53 AM 68.0 °F 63.0 °F 84% 29.86 in 10.0 mi South 5.8 mph - 0.00 in   Overcast
11:53 AM 69.1 °F 62.1 °F 78% 29.86 in 10.0 mi Variable 4.6 mph - N/A   Overcast
12:01 PM 69.8 °F 62.6 °F 78% 29.88 in 10.0 mi South 4.6 mph - N/A   Overcast
12:53 PM 70.0 °F 62.1 °F 76% 29.85 in 10.0 mi South 8.1 mph - N/A   Overcast
1:15 PM 71.6 °F 60.8 °F 69% 29.86 in 10.0 mi South 9.2 mph - N/A   Overcast
1:53 PM 72.0 °F 62.1 °F 71% 29.83 in 10.0 mi Variable 4.6 mph - N/A   Mostly Cloudy
2:53 PM 72.0 °F 62.1 °F 71% 29.83 in 10.0 mi South 8.1 mph - N/A   Mostly Cloudy
3:53 PM 71.1 °F 61.0 °F 70% 29.82 in 10.0 mi SSE 5.8 mph - N/A   Overcast
4:53 PM 71.1 °F 60.1 °F 68% 29.81 in 10.0 mi SSE 5.8 mph - N/A   Overcast
5:48 PM 71.6 °F 60.8 °F 69% 29.82 in 10.0 mi South 6.9 mph - N/A   Scattered Clouds
5:53 PM 72.0 °F 61.0 °F 68% 29.80 in 10.0 mi Variable 4.6 mph - N/A   Partly Cloudy
6:53 PM 70.0 °F 61.0 °F 73% 29.80 in 10.0 mi Calm Calm - N/A   Scattered Clouds
7:03 PM 71.6 °F 60.8 °F 69% 29.82 in 10.0 mi SSE 3.5 mph - N/A   Mostly Cloudy
7:53 PM 70.0 °F 61.0 °F 73% 29.81 in 10.0 mi SSE 3.5 mph - N/A   Overcast
8:41 PM 68.0 °F 60.8 °F 78% 29.83 in 10.0 mi SE 4.6 mph - N/A   Mostly Cloudy
8:48 PM 68.0 °F 60.8 °F 78% 29.84 in 10.0 mi SSE 3.5 mph - N/A   Mostly Cloudy
8:53 PM 68.0 °F 61.0 °F 78% 29.82 in 10.0 mi SSE 3.5 mph - N/A   Mostly Cloudy
9:53 PM 66.0 °F 61.0 °F 84% 29.83 in 10.0 mi SE 4.6 mph - N/A   Scattered Clouds
10:53 PM 63.0 °F 61.0 °F 93% 29.85 in 10.0 mi Calm Calm - N/A   Scattered Clouds
11:53 PM 62.1 °F 59.0 °F 90% 29.85 in 10.0 mi Calm Calm - N/A   Partly Cloudy